Wind_Speed
17 21 25 26 12 28 31 37 38 38 38 35 34 33 34 37 41 41 41 40 40 39 37 34 31 37 35 34 33 33 32 28 27 24 17 12 10 9 9 9 9 9 8
20 25 30 29 27 16 24 33 38 43 40 38 37 37 36 38 41 44 42 43 42 42 39 37 35 39 37 35 34 35 31 28 29 20 15 3 4 7 8 8 7 7 6
19 20 25 27 29 29 22 10 25 40 43 43 37 31 28 29 28 32 40 45 46 44 43 40 39 42 38 38 37 36 33 28 29 28 6 3 3 7 8 9 8 7 6
18 17 22 26 28 29 22 17 12 18 36 42 41 36 35 33 36 41 41 45 48 47 45 43 42 42 41 39 37 36 35 34 28 32 8 6 12 3 2 7 9 9 8
17 18 21 25 25 29 29 21 15 9 20 38 39 40 36 36 32 31 34 37 43 48 48 43 45 43 42 41 39 40 37 37 32 27 10 11 20 11 5 3 7 10 10
18 18 25 25 27 30 31 28 22 17 7 18 41 41 40 37 31 33 35 36 43 47 46 47 48 45 45 45 42 41 38 38 34 33 14 21 9 9 8 4 4 9 10
17 18 19 27 30 31 32 31 29 23 15 8 27 43 39 38 35 39 41 38 37 39 47 50 50 47 47 44 41 41 39 39 36 34 21 23 13 19 13 14 6 4 5
17 17 22 26 27 29 29 29 32 27 25 15 2 33 38 35 32 38 38 41 39 43 48 49 48 49 48 45 43 41 41 37 36 32 25 21 15 18 18 16 14 2 2
16 17 24 27 27 28 29 28 28 24 25 21 8 6 17 32 34 36 37 36 40 38 42 47 46 49 49 46 44 42 41 40 37 35 27 23 18 17 16 17 20 12 3
16 16 23 27 27 28 28 30 30 26 28 28 18 13 8 6 18 40 40 36 37 40 44 46 45 46 48 47 45 42 42 40 38 35 30 24 21 19 17 15 16 11 8
14 14 20 24 27 28 29 30 30 34 35 28 24 18 7 1 10 19 42 39 37 42 45 47 45 45 47 47 45 41 42 41 38 33 29 27 24 23 19 17 16 14 12
11 14 20 25 28 30 31 30 29 34 32 30 29 23 16 10 11 1 16 46 38 39 45 45 45 44 45 46 45 43 43 41 39 36 31 28 25 22 22 20 18 17 16
12 11 18 22 25 29 30 30 33 32 33 31 30 28 24 18 9 8 1 7 38 43 41 41 42 44 46 47 46 46 44 43 41 41 35 32 28 25 24 22 21 19 18
11 12 13 18 23 26 28 29 30 32 31 31 29 31 29 26 19 9 3 12 10 32 40 41 42 42 42 45 45 44 43 44 43 42 39 37 34 31 27 23 21 20 19
13 13 12 16 21 25 28 28 30 33 33 28 29 32 29 26 24 21 15 7 4 8 32 42 38 39 39 41 44 43 42 42 42 43 40 38 35 32 28 26 22 19 18
13 14 15 18 19 22 24 26 29 32 32 29 30 31 31 28 28 26 21 15 5 7 8 42 44 39 36 40 43 40 39 39 38 39 40 34 32 29 28 25 21 20 21
10 11 13 16 18 22 23 21 24 25 27 26 30 31 31 31 28 25 24 23 19 14 8 9 32 35 37 40 44 45 40 37 38 39 40 36 32 29 27 24 23 21 21
6 9 12 16 16 20 21 20 20 23 25 25 26 30 30 30 27 25 25 25 23 24 24 18 14 16 13 26 45 48 43 41 39 42 43 37 33 28 24 22 21 22 22
10 10 12 11 14 18 20 18 19 18 20 25 25 28 28 28 26 27 24 25 24 22 28 28 28 19 17 6 9 37 44 39 39 42 39 36 29 23 20 22 23 22 22
8 8 12 11 12 17 17 17 19 18 19 19 20 25 24 27 26 24 23 23 23 25 27 26 30 29 31 23 6 5 10 32 28 30 29 25 26 23 21 21 21 20 20
7 7 9 8 10 13 14 14 17 19 19 17 16 19 24 22 23 22 24 23 21 22 25 27 28 28 30 33 25 15 8 14 21 27 23 22 23 22 21 20 21 22 20
7 8 8 8 8 11 13 14 16 18 17 16 17 18 18 20 22 23 23 23 22 22 22 19 22 24 25 27 28 29 27 16 18 15 13 15 19 21 19 17 18 17 18
5 6 6 8 8 9 10 13 15 17 17 17 17 16 17 19 18 22 23 24 24 23 21 20 20 22 20 20 22 23 23 21 22 13 10 7 12 15 16 17 16 16 17
8 5 6 8 9 8 9 10 12 14 15 15 16 16 19 17 16 15 21 23 20 19 18 18 18 19 21 21 18 16 15 17 16 12 10 9 9 8 8 10 10 9 10
10 9 9 10 11 10 10 10 11 11 12 13 14 15 15 15 15 12 14 18 21 17 16 16 15 16 17 18 16 16 16 13 11 9 9 10 9 9 8 7 9 9 9
12 13 12 12 11 12 12 11 10 10 9 10 10 12 13 13 13 14 12 10 12 13 15 17 15 13 14 15 15 14 12 11 10 7 7 11 9 9 8 8 9 9 8
Wind_Direction
346 359 10 8 217 183 180 175 173 176 178 175 171 175 177 183 185 187 185 182 179 179 181 181 177 174 167 165 163 162 159 156 161 151 146 153 154 153 152 149 145 138 130
358 358 -0 7 8 7 185 184 179 179 183 180 182 181 181 186 187 190 190 186 186 185 186 186 181 180 174 171 170 167 160 163 166 155 135 122 127 176 171 168 162 156 146
356 356 358 0 2 2 5 350 196 184 181 185 183 181 181 185 188 187 194 193 191 190 190 190 187 184 181 177 173 172 169 165 170 169 139 127 184 153 192 197 190 185 172
360 -0 357 358 360 354 354 353 335 201 188 184 182 179 179 179 192 192 193 193 196 194 196 194 192 188 186 182 180 179 176 172 174 183 205 199 152 160 146 202 200 202 204
2 359 357 356 357 359 1 0 336 347 202 188 188 184 187 192 190 188 189 191 195 198 197 201 195 194 192 188 185 183 185 184 182 187 185 171 162 158 137 148 186 203 209
4 1 1 0 1 3 6 7 357 347 341 210 189 191 190 189 182 182 183 187 195 198 201 199 197 197 195 192 190 190 192 192 193 193 194 173 165 176 151 125 157 185 200
6 2 3 1 1 3 4 2 7 349 4 333 204 192 193 189 187 185 184 185 186 191 195 197 196 197 195 195 195 195 196 199 200 203 209 189 193 175 168 153 146 150 172
5 5 4 1 0 360 3 2 355 354 23 5 69 199 194 189 192 189 191 190 191 193 196 197 198 198 198 198 198 200 202 203 203 202 203 197 193 185 174 165 158 94 152
1 3 3 2 0 0 1 360 359 357 14 33 2 357 174 198 194 194 197 197 194 193 196 196 195 197 199 200 201 202 205 208 210 209 209 206 201 194 188 183 175 156 154
360 3 2 0 360 3 2 2 4 2 14 21 15 319 90 158 218 196 194 196 196 194 197 197 198 198 201 202 203 203 207 210 213 213 213 213 207 192 188 186 191 193 162
0 0 358 360 3 3 6 7 359 12 11 21 26 11 318 204 288 194 194 197 195 196 198 199 199 201 202 205 205 205 209 212 213 214 215 212 207 201 200 198 200 202 196
359 354 356 359 4 5 6 3 1 12 6 21 27 30 25 293 333 275 217 198 197 197 199 197 198 201 204 205 206 206 210 211 211 210 211 211 208 210 209 209 210 212 212
1 350 3 4 2 2 2 359 7 7 11 17 21 36 30 21 14 341 56 249 197 197 198 198 197 200 204 205 207 210 211 212 211 212 212 211 210 211 210 216 221 220 219
2 354 3 4 2 1 360 2 2 6 11 15 18 25 25 28 34 3 345 317 178 198 193 197 200 201 201 205 208 209 211 214 215 216 217 219 219 217 215 216 215 216 215
358 357 359 359 4 2 1 1 1 8 9 12 15 22 26 34 32 26 14 345 315 185 199 196 200 199 201 205 205 207 210 212 214 219 221 222 224 218 220 215 215 216 214
353 353 351 3 0 1 2 359 3 8 11 9 16 20 26 29 33 29 31 36 17 255 213 204 197 202 208 210 211 207 207 211 212 215 220 218 218 221 216 220 224 228 220
345 345 353 352 356 358 360 355 1 13 16 10 21 21 24 26 29 25 36 44 40 50 66 44 184 201 211 215 213 210 207 208 213 215 218 211 211 213 214 215 217 224 233
325 332 338 349 354 353 360 359 358 13 19 14 15 25 23 28 22 29 30 42 43 45 52 47 94 149 168 199 214 214 209 211 206 207 209 198 197 198 206 211 216 225 227
325 338 350 342 356 354 360 1 2 7 14 15 8 21 29 25 25 24 26 42 45 59 56 58 65 67 53 105 176 208 205 199 198 202 196 194 193 199 209 213 216 219 224
334 345 351 357 2 354 360 7 7 4 7 11 11 18 29 28 25 25 28 42 55 67 81 68 69 66 56 57 78 128 205 189 168 167 178 179 182 185 194 206 206 211 219
327 349 351 353 4 358 359 6 8 6 3 15 20 22 23 27 27 30 37 39 52 62 70 67 68 60 57 49 59 85 63 90 131 143 150 166 183 189 197 207 214 220 228
326 336 343 346 359 5 7 7 7 5 12 20 24 26 24 24 29 32 39 42 41 45 50 57 52 50 47 45 51 51 48 92 107 99 112 139 176 194 200 200 208 218 223
296 312 328 333 344 6 2 4 359 3 11 18 25 25 28 32 26 34 32 38 37 33 35 38 39 36 36 33 31 48 43 56 75 72 77 84 131 154 186 197 204 207 203
284 295 304 312 319 342 353 351 348 358 7 15 18 22 25 25 31 27 38 34 34 37 34 33 35 39 38 31 27 28 32 30 42 47 40 54 87 119 137 149 156 173 181
263 269 280 291 299 318 330 336 339 348 2 9 12 24 18 25 22 31 25 35 39 42 45 44 39 34 36 28 22 23 27 23 9 24 32 41 37 68 94 118 128 129 148
260 267 279 283 294 306 312 321 325 331 345 356 1 15 10 16 18 24 24 34 32 41 45 43 50 46 36 32 27 15 20 19 19 42 52 53 52 70 81 96 100 104 103
Height
758 753 740 734 735 739 744 746 752 759 768 774 780 786 791 797 803 807 811 816 821 827 831 836 840 845 848 851 856 860 864 868 871 874 879 883 884 886 886 887 888 888 888
762 753 746 745 743 743 745 747 750 754 763 769 775 781 788 793 797 803 808 813 818 824 829 833 838 842 845 850 854 857 862 867 871 872 877 883 887 886 887 888 889 889 889
777 769 760 756 752 749 745 746 750 752 755 764 772 781 788 794 798 800 805 809 814 820 825 830 835 839 843 847 851 855 858 862 869 871 871 879 882 884 886 887 889 889 890
783 779 772 764 762 758 753 749 748 750 753 758 764 770 775 782 786 790 797 803 810 816 821 826 832 837 841 845 849 853 856 859 863 868 868 869 871 878 885 886 887 888 890
791 785 781 775 770 765 758 753 752 746 749 754 759 764 771 777 784 790 795 801 806 811 817 822 828 833 837 842 847 851 855 858 860 863 866 867 870 872 875 883 884 886 887
795 791 787 780 774 769 763 759 755 749 746 747 753 758 764 770 777 784 790 796 801 806 811 817 823 828 833 837 843 849 852 856 859 862 864 864 866 869 871 877 881 883 885
801 797 790 784 779 775 769 764 757 759 749 746 747 754 759 766 771 775 781 789 794 800 805 810 816 822 828 834 841 845 850 853 856 859 862 864 865 866 868 871 877 880 883
808 803 798 794 787 781 777 773 762 755 740 748 744 752 758 763 767 772 778 782 787 792 799 805 811 817 824 830 836 841 846 851 854 857 860 862 864 866 867 869 873 880 881
816 809 804 799 794 787 781 778 775 767 755 741 750 751 751 761 763 769 777 781 784 790 796 802 807 812 818 825 832 837 841 847 851 854 857 860 862 864 866 868 870 873 881
822 813 809 805 800 793 786 780 775 771 759 745 743 750 744 751 760 762 769 776 781 785 790 797 803 808 815 821 827 832 838 843 847 851 855 858 860 863 865 867 870 872 873
824 821 819 813 804 798 791 783 780 763 758 761 749 742 747 751 756 754 761 769 775 779 784 791 798 803 810 816 823 828 833 837 842 847 851 855 858 860 863 865 867 869 871
829 825 821 812 806 800 793 792 786 771 772 763 754 758 748 741 739 749 758 761 769 774 778 784 791 797 803 810 816 821 827 832 836 841 847 851 854 857 860 862 865 867 869
832 832 822 819 813 805 801 796 784 782 776 770 767 760 757 757 746 752 741 756 759 765 772 779 784 790 796 802 809 814 820 826 831 835 840 844 849 852 855 858 861 863 866
832 832 827 825 820 813 807 801 795 788 783 777 774 766 762 754 754 758 754 747 750 755 761 770 779 783 789 796 803 809 814 820 824 829 834 838 842 845 850 854 856 859 862
837 834 832 831 824 818 810 804 801 791 784 784 778 770 767 760 759 754 750 745 745 751 755 756 772 777 783 790 794 801 808 813 818 822 827 831 836 841 844 848 852 855 858
840 837 836 829 828 824 816 812 804 798 791 786 779 775 769 767 762 760 760 754 752 753 753 756 757 768 776 784 789 793 801 807 811 815 820 825 831 835 839 843 847 850 852
843 841 835 834 832 825 820 820 816 810 803 798 789 784 779 771 768 771 767 762 761 758 757 753 752 763 772 778 781 786 794 799 804 808 813 818 823 828 833 838 842 845 848
846 842 836 831 830 827 823 825 821 814 808 804 800 793 787 781 779 775 774 765 765 762 754 754 753 756 764 766 773 776 786 790 795 798 803 808 814 820 826 831 836 839 842
845 841 839 835 829 828 829 827 823 818 813 808 805 798 794 791 789 783 779 773 770 768 762 762 758 763 764 759 768 770 776 781 785 790 794 801 807 812 819 824 829 833 837
846 842 839 836 832 831 829 827 824 822 819 815 811 805 799 794 793 792 786 777 775 776 771 776 766 769 765 763 767 766 767 773 773 770 790 795 802 807 813 819 823 827 831
846 843 841 840 836 835 832 828 826 823 821 818 813 808 804 800 799 794 787 784 781 780 777 778 774 774 771 771 773 770 780 768 767 773 785 793 797 803 809 815 819 821 828
843 842 841 839 837 835 832 830 827 826 822 818 814 810 808 804 803 799 793 790 788 787 784 785 784 781 781 783 781 780 780 775 774 786 789 789 793 801 807 811 815 818 822
843 842 839 839 838 836 834 830 830 826 823 820 817 814 812 808 806 805 800 796 794 793 792 790 790 789 788 785 782 780 787 788 784 791 791 795 794 797 801 807 811 815 818
839 839 839 839 838 836 834 833 832 828 824 821 819 814 811 808 811 810 806 801 799 799 798 798 797 797 796 796 794 793 790 791 793 795 799 798 798 802 802 805 808 812 814
840 840 840 838 836 835 833 833 832 829 825 824 821 818 816 815 815 812 809 806 806 806 805 804 805 803 802 802 801 798 793 793 799 798 799 799 805 802 803 807 809 810 811
837 837 836 835 834 833 831 831 831 828 826 824 823 821 820 818 815 812 811 813 812 810 809 808 808 808 807 805 804 802 800 801 800 799 803 802 807 806 808 809 809 809 811